Change the Weather History Date:

Monday, October 28, 2013

  Actual Average Record
Temperature  
Mean Temperature 24 °F -  
Max Temperature 32 °F 50 °F 68 °F (1976)
Min Temperature 17 °F 28 °F 10 °F (1952)
Degree Days  
Heating Degree Days 40    
Moisture  
Dew Point 16 °F    
Average Humidity 71    
Maximum Humidity 86    
Minimum Humidity 48    
Precipitation  
Precipitation 0.00 in - - ()
Sea Level Pressure  
Sea Level Pressure 30.54 in    
Wind  
Wind Speed 10 mph (NNE)    
Max Wind Speed 15 mph    
Max Gust Speed 20 mph    
Visibility 10 miles    
Events      
Averages and records for this station are not official NWS values.
T = Trace of Precipitation, MM = Missing Value Source: NWS Daily Summary

Daily Weather History Graph

Daily Weather History Graph

Search for Another Location

Airport or City:

Trip Planner

Search our weather history database for the weather conditions in past years. The results will help you decide how hot, cold, wet, or windy it might be!

Date:

Astronomy

Oct. 28, 2013 Rise Set
Actual Time 8:09 AM CDT 6:16 PM CDT
Civil Twilight 7:37 AM CDT 6:48 PM CDT
Nautical Twilight 7:00 AM CDT 7:25 PM CDT
Astronomical Twilight 6:24 AM CDT 8:01 PM CDT
Moon 1:36 AM CDT (10/28) 3:23 PM CDT (10/28)
Length of Visible Light 11h 11m
Length of Day
10h 06m
Waning Crescent, 34% of the Moon is Illuminated
Oct 28
Waning Crescent
Nov 3
New
Nov 9
First Quarter
Nov 17
Full
Nov 25
Last Quarter

Hourly Weather History & Observations

Time (CDT) Temp. Windchill Dew Point Humidity Pressure Visibility Wind Dir Wind Speed Gust Speed Precip Events Conditions
12:15 AM 23.0 °F 11.1 °F 15.8 °F 74% 30.42 in 10.0 mi North 12.7 mph - N/A   Clear
12:35 AM 23.0 °F 11.1 °F 15.8 °F 74% 30.43 in 10.0 mi North 12.7 mph 17.3 mph N/A   Partly Cloudy
12:55 AM 24.8 °F 12.9 °F 17.6 °F 74% 30.44 in 10.0 mi North 13.8 mph - N/A   Scattered Clouds
1:15 AM 23.0 °F 10.1 °F 17.6 °F 80% 30.44 in 10.0 mi North 15.0 mph 19.6 mph N/A   Partly Cloudy
1:35 AM 23.0 °F 10.6 °F 17.6 °F 80% 30.45 in 10.0 mi NNE 13.8 mph 19.6 mph N/A   Clear
1:55 AM 23.0 °F 10.6 °F 15.8 °F 74% 30.46 in 10.0 mi North 13.8 mph - N/A   Clear
2:15 AM 23.0 °F 11.7 °F 15.8 °F 74% 30.47 in 10.0 mi North 11.5 mph - N/A   Clear
2:35 AM 23.0 °F 11.1 °F 15.8 °F 74% 30.48 in 10.0 mi North 12.7 mph 17.3 mph N/A   Partly Cloudy
2:55 AM 21.2 °F 8.9 °F 15.8 °F 80% 30.48 in 10.0 mi NNE 12.7 mph - N/A   Scattered Clouds
3:15 AM 23.0 °F 12.4 °F 15.8 °F 74% 30.49 in 10.0 mi North 10.4 mph - N/A   Mostly Cloudy
3:35 AM 23.0 °F 10.6 °F 15.8 °F 74% 30.50 in 10.0 mi NNE 13.8 mph 17.3 mph N/A   Overcast
3:55 AM 23.0 °F 12.4 °F 17.6 °F 80% 30.51 in 10.0 mi NNE 10.4 mph - N/A   Overcast
4:15 AM 23.0 °F 12.4 °F 17.6 °F 80% 30.52 in 10.0 mi North 10.4 mph - N/A   Overcast
4:35 AM 23.0 °F 13.1 °F 17.6 °F 80% 30.52 in 10.0 mi NNE 9.2 mph - N/A   Overcast
4:55 AM 23.0 °F 12.4 °F 17.6 °F 80% 30.53 in 10.0 mi NNE 10.4 mph - N/A   Overcast
5:15 AM 23.0 °F 11.1 °F 17.6 °F 80% 30.54 in 10.0 mi North 12.7 mph - N/A   Overcast
5:35 AM 23.0 °F 12.4 °F 17.6 °F 80% 30.54 in 10.0 mi North 10.4 mph - N/A   Overcast
5:55 AM 23.0 °F 13.1 °F 17.6 °F 80% 30.55 in 10.0 mi North 9.2 mph - N/A   Overcast
6:15 AM 23.0 °F 11.7 °F 17.6 °F 80% 30.55 in 10.0 mi North 11.5 mph - N/A   Overcast
6:35 AM 23.0 °F 11.7 °F 15.8 °F 74% 30.55 in 10.0 mi North 11.5 mph 17.3 mph N/A   Overcast
6:55 AM 23.0 °F 13.9 °F 15.8 °F 74% 30.56 in 10.0 mi North 8.1 mph - N/A   Overcast
7:15 AM 21.2 °F 9.5 °F 15.8 °F 80% 30.56 in 10.0 mi North 11.5 mph - N/A   Overcast
7:35 AM 19.4 °F 7.9 °F 15.8 °F 86% 30.56 in 10.0 mi North 10.4 mph - N/A   Mostly Cloudy
7:55 AM 17.6 °F 5.7 °F 14.0 °F 86% 30.56 in 10.0 mi North 10.4 mph - N/A   Scattered Clouds
8:15 AM 17.6 °F 7.3 °F 14.0 °F 86% 30.57 in 10.0 mi North 8.1 mph - N/A   Partly Cloudy
8:35 AM 17.6 °F 8.2 °F 14.0 °F 86% 30.58 in 10.0 mi North 6.9 mph - N/A   Clear
8:55 AM 17.6 °F 9.3 °F 14.0 °F 86% 30.59 in 10.0 mi North 5.8 mph - N/A   Clear
9:15 AM 19.4 °F 10.4 °F 15.8 °F 86% 30.59 in 10.0 mi North 6.9 mph - N/A   Clear
9:35 AM 21.2 °F 11.7 °F 15.8 °F 80% 30.60 in 10.0 mi North 8.1 mph - N/A   Clear
9:55 AM 23.0 °F 12.4 °F 15.8 °F 74% 30.60 in 10.0 mi North 10.4 mph - N/A   Clear
10:15 AM 23.0 °F 13.1 °F 15.8 °F 74% 30.61 in 10.0 mi NNE 9.2 mph - N/A   Clear
10:35 AM 23.0 °F 12.4 °F 15.8 °F 74% 30.61 in 10.0 mi North 10.4 mph - N/A   Partly Cloudy
10:55 AM 24.8 °F 16.1 °F 15.8 °F 69% 30.62 in 10.0 mi North 8.1 mph - N/A   Scattered Clouds
11:15 AM 24.8 °F 14.6 °F 15.8 °F 69% 30.62 in 10.0 mi NNE 10.4 mph - N/A   Overcast
11:35 AM 26.6 °F 16.2 °F 17.6 °F 69% 30.62 in 10.0 mi NNE 11.5 mph - N/A   Overcast
11:55 AM 28.4 °F 19.7 °F 17.6 °F 64% 30.61 in 10.0 mi North 9.2 mph - N/A   Mostly Cloudy
12:15 PM 28.4 °F 21.2 °F 17.6 °F 64% 30.61 in 10.0 mi NNE 6.9 mph 18.4 mph N/A   Scattered Clouds
12:35 PM 28.4 °F 19.7 °F 15.8 °F 59% 30.61 in 10.0 mi NNE 9.2 mph - N/A   Partly Cloudy
12:55 PM 28.4 °F 20.4 °F 15.8 °F 59% 30.60 in 10.0 mi NNE 8.1 mph - N/A   Clear
1:15 PM 28.4 °F 19.1 °F 15.8 °F 59% 30.60 in 10.0 mi NE 10.4 mph - N/A   Partly Cloudy
1:35 PM 28.4 °F 20.4 °F 15.8 °F 59% 30.59 in 10.0 mi NNE 8.1 mph - N/A   Partly Cloudy
1:55 PM 30.2 °F 20.2 °F 15.8 °F 55% 30.58 in 10.0 mi North 12.7 mph 16.1 mph N/A   Scattered Clouds
2:15 PM 30.2 °F 23.4 °F 15.8 °F 55% 30.58 in 10.0 mi NNE 6.9 mph - N/A   Partly Cloudy
2:35 PM 32.0 °F 22.5 °F 15.8 °F 51% 30.57 in 10.0 mi NNE 12.7 mph - N/A   Partly Cloudy
2:55 PM 30.2 °F 21.9 °F 15.8 °F 55% 30.56 in 10.0 mi NNE 9.2 mph - N/A   Clear
3:15 PM 30.2 °F 23.4 °F 15.8 °F 55% 30.55 in 10.0 mi North 6.9 mph - N/A   Clear
3:35 PM 30.2 °F 21.9 °F 15.8 °F 55% 30.54 in 10.0 mi NNE 9.2 mph - N/A   Clear
3:55 PM 32.0 °F 23.6 °F 14.0 °F 48% 30.54 in 10.0 mi North 10.4 mph - N/A   Clear
4:15 PM 30.2 °F 21.9 °F 14.0 °F 51% 30.53 in 10.0 mi NNE 9.2 mph - N/A   Clear
4:35 PM 30.2 °F 21.3 °F 14.0 °F 51% 30.53 in 10.0 mi NNE 10.4 mph - N/A   Clear
4:55 PM 28.4 °F 20.4 °F 12.2 °F 51% 30.52 in 10.0 mi North 8.1 mph - N/A   Clear
5:15 PM 28.4 °F 20.4 °F 14.0 °F 55% 30.52 in 10.0 mi NNE 8.1 mph - N/A   Clear
5:35 PM 28.4 °F 21.2 °F 12.2 °F 51% 30.52 in 10.0 mi NNE 6.9 mph - N/A   Clear
5:55 PM 26.6 °F 20.0 °F 12.2 °F 55% 30.51 in 8.0 mi NNE 5.8 mph - N/A   Clear
6:15 PM 26.6 °F 20.0 °F 14.0 °F 59% 30.51 in 10.0 mi North 5.8 mph - N/A   Clear
6:35 PM 24.8 °F 17.9 °F 14.0 °F 64% 30.52 in 10.0 mi North 5.8 mph - N/A   Clear
6:55 PM 24.8 °F 17.9 °F 14.0 °F 64% 30.52 in 10.0 mi North 5.8 mph - N/A   Clear
7:15 PM 23.0 °F 15.8 °F 14.0 °F 68% 30.52 in 10.0 mi North 5.8 mph - N/A   Clear
7:35 PM 23.0 °F 15.8 °F 14.0 °F 68% 30.53 in 10.0 mi North 5.8 mph - N/A   Clear
7:55 PM 23.0 °F 17.0 °F 14.0 °F 68% 30.53 in 10.0 mi North 4.6 mph - N/A   Clear
8:15 PM 23.0 °F 14.7 °F 14.0 °F 68% 30.53 in 10.0 mi North 6.9 mph - N/A   Clear
8:35 PM 21.2 °F 12.6 °F 14.0 °F 74% 30.52 in 10.0 mi North 6.9 mph - N/A   Clear
8:55 PM 23.0 °F 13.9 °F 14.0 °F 68% 30.52 in 10.0 mi North 8.1 mph - N/A   Clear
9:15 PM 23.0 °F 14.7 °F 14.0 °F 68% 30.52 in 10.0 mi North 6.9 mph - N/A   Clear
9:35 PM 21.2 °F 12.6 °F 15.8 °F 80% 30.52 in 10.0 mi North 6.9 mph - N/A   Clear
9:55 PM 21.2 °F 12.6 °F 15.8 °F 80% 30.52 in 10.0 mi NNE 6.9 mph - N/A   Clear
10:15 PM 21.2 °F 11.7 °F 15.8 °F 80% 30.52 in 10.0 mi North 8.1 mph - N/A   Clear
10:35 PM 21.2 °F 11.7 °F 15.8 °F 80% 30.52 in 10.0 mi NNE 8.1 mph - N/A   Clear
10:55 PM 21.2 °F 10.9 °F 15.8 °F 80% 30.51 in 10.0 mi NNE 9.2 mph - N/A   Clear
11:15 PM 21.2 °F 10.9 °F 15.8 °F 80% 30.51 in 10.0 mi NNE 9.2 mph - N/A   Clear
11:35 PM 21.2 °F 13.6 °F 15.8 °F 80% 30.51 in 10.0 mi NE 5.8 mph - N/A   Clear
11:55 PM 21.2 °F 13.6 °F 15.8 °F 80% 30.51 in 10.0 mi NNE 5.8 mph - N/A   Clear